sat.trackr.live / text

‹ back to catalog

STARLINK-34022

NORAD 63866 · 2025-094C

PAYLOAD ACTIVE UNKNOWN

§ Identity

Operator
Country
US
Launch date
2025-05-10
Launch site
AFWTR
Launch vehicle
Mass (kg)
RCS (m²)

Purposes: comms

External: N2YO · Heavens-Above · Gunter

§ Orbital elements

Epoch: 2026-05-25T03:35:10.603392Z

Period
96.11 min
Inclination
70.0023°
Eccentricity
0.0002207
Mean motion
14.98339120 rev/d
Perigee alt
570.5 km
Apogee alt
573.6 km
Semi-major
6,950.2 km
B*
2.6906e-4
RAAN
41.7712°
Arg perigee
271.9476°
Mean anomaly
88.1430°
Rev number
5,865

§ Raw data

STARLINK-340221 63866U 25094C   26145.14942828  .00003120  00000+0  26906-3 0  99962 63866  70.0023  41.7712 0002207 271.9476  88.1430 14.98339120 58650

JSON: /api/v1/satellites/63866 · /tle

For live sub-satellite position, see the globe view (requires WebGL).

§ Visibility from observer

Set your observer location to see the next 7 days of passes ≥ 10°. The values pass through the URL so the page stays shareable.

No JS? Fill the form by hand. The geolocation button needs JavaScript.